[TLELIST] Archives

 

Current TLEs

March 12th 2007 PDT

HST 1 20580U 90037B 07069.88264738 +.00000435 +00000-0 +20995-4 0 08475 2 20580 028.4657 111.1226 0003903 133.6022 226.4883 15.00203258725187 ISS (ZARYA) 1 25544U 98067A 07071.49014816 .00017262 00000-0 96466-4 0 8035 2 25544 051.6331 243.6150 0020479 308.3958 084.1605 15.79224042475501 CXO 1 25867U 99040B 07069.79166667 .00000347 00000-0 00000+0 0 444 2 25867 061.2975 091.4230 6096108 285.7624 354.5559 00.37805408 1881 ____________________________________________________________________ These 2-Line ...Continue Reading

Current TLEs

March 11th 2007 PDT

HST 1 20580U 90037B 07070.21528130 .00000441 00000-0 21440-4 0 8263 2 20580 028.4657 108.9542 0003895 137.1909 222.8982 15.00203484725232 ISS (ZARYA) 1 25544U 98067A 07070.48021473 .00017154 00000-0 96038-4 0 7966 2 25544 051.6333 248.8428 0020511 304.2868 102.7634 15.79187553475346 CXO 1 25867U 99040B 07069.79166667 .00000347 00000-0 00000+0 0 444 2 25867 061.2975 091.4230 6096108 285.7624 354.5559 00.37805408 1881 ____________________________________________________________________ These 2-Line ...Continue Reading

Current TLEs

March 10th 2007 PDT

HST 1 20580U 90037B 07068.88474513 .00000438 00000-0 21210-4 0 8258 2 20580 028.4655 117.6275 0003880 123.6711 236.4237 15.00202702725039 ISS (ZARYA) 1 25544U 98067A 07069.53130442 .00017790 00000-0 99587-4 0 7897 2 25544 051.6337 253.7549 0020532 300.7641 108.0659 15.79156039475196 CXO 1 25867U 99040B 07069.79166667 .00000347 00000-0 00000+0 0 444 2 25867 061.2975 091.4230 6096108 285.7624 354.5559 00.37805408 1881 ____________________________________________________________________ These 2-Line ...Continue Reading

Current TLEs

March 9th 2007 PDT

HST 1 20580U 90037B 07066.95546546 +.00000488 +00000-0 +25096-4 0 08442 2 20580 028.4650 130.2034 0003794 103.7107 256.3897 15.00201926724747 ISS (ZARYA) 1 25544U 98067A 07068.51753068 .00022485 00000-0 12497-3 0 7823 2 25544 051.6344 258.9995 0020274 296.2882 105.4612 15.79129608475030 CXO 1 25867U 99040B 07067.16666667 .00000316 00000-0 00000+0 0 433 2 25867 061.2837 091.4601 6091863 285.8305 357.1477 00.37805836 1872 ____________________________________________________________________ These 2-Line ...Continue Reading

Current TLEs

March 8th 2007 PDT

HST 1 20580U 90037B 07067.48768102 .00000459 00000-0 22876-4 0 8244 2 20580 028.4654 126.7344 0003861 109.9750 250.1254 15.00202076724827 ISS (ZARYA) 1 25544U 98067A 07067.30438657 .00018331 00000-0 10299-3 0 7770 2 25544 051.6351 265.2773 0020105 291.7935 048.8200 15.79061114474832 CXO 1 25867U 99040B 07067.16666667 .00000316 00000-0 00000+0 0 433 2 25867 061.2837 091.4601 6091863 285.8305 357.1477 00.37805836 1872 ____________________________________________________________________ These 2-Line ...Continue Reading

Current TLEs

March 7th 2007 PDT

HST 1 20580U 90037B 07066.22367173 .00000451 00000-0 22190-4 0 8238 2 20580 028.4672 134.9810 0004085 096.5441 263.5615 15.00201420724633 ISS (ZARYA) 1 25544U 98067A 07066.29361111 .00015407 00000-0 87385-4 0 7713 2 25544 051.6342 270.5069 0020294 287.3071 063.5764 15.79010797474672 CXO 1 25867U 99040B 07067.16666667 .00000316 00000-0 00000+0 0 433 2 25867 061.2837 091.4601 6091863 285.8305 357.1477 00.37805836 1872 ____________________________________________________________________ These 2-Line ...Continue Reading

Current TLEs

March 6th 2007 PDT

HST 1 20580U 90037B 07065.02618669 .00000472 00000-0 23899-4 0 8223 2 20580 028.4669 142.7893 0004124 084.4013 275.7046 15.00200991724457 ISS (ZARYA) 1 25544U 98067A 07065.48830156 .00014957 00000-0 85056-4 0 7658 2 25544 051.6350 274.6735 0020327 284.4244 165.6551 15.78982831474554 CXO 1 25867U 99040B 07064.54166667 .00000272 00000-0 00000+0 0 427 2 25867 061.2700 091.5067 6088581 285.8905 359.7058 00.37805817 1868 ____________________________________________________________________ These 2-Line ...Continue Reading

Current TLEs

March 5th 2007 PDT

HST 1 20580U 90037B 07063.82870047 .00000493 00000-0 25498-4 0 8218 2 20580 028.4668 150.5960 0004094 071.8294 288.2733 15.00200356724272 ISS (ZARYA) 1 25544U 98067A 07064.39569444 .00016481 00000-0 93393-4 0 7585 2 25544 051.6343 280.3272 0020623 279.7206 075.4809 15.78953836474377 CXO 1 25867U 99040B 07064.54166667 .00000272 00000-0 00000+0 0 427 2 25867 061.2700 091.5067 6088581 285.8905 359.7058 00.37805817 1868 ____________________________________________________________________ These 2-Line ...Continue Reading

Current TLEs

March 4th 2007 PDT

HST 1 20580U 90037B 07062.69774055 .00000482 00000-0 24675-4 0 8207 2 20580 028.4667 157.9706 0003895 061.0285 299.0698 15.00199558724102 ISS (ZARYA) 1 25544U 98067A 07063.38269676 .00016037 00000-0 91141-4 0 7516 2 25544 051.6352 285.5688 0020438 276.3468 076.9094 15.78920625474217 CXO 1 25867U 99040B 07061.87500000 .00000216 00000-0 00000+0 0 410 2 25867 061.2592 091.5642 6085644 285.9476 356.6138 00.37804513 1853 ____________________________________________________________________ These 2-Line ...Continue Reading

Current TLEs

March 3rd 2007 PDT

HST 1 20580U 90037B 07061.56677999 .00000458 00000-0 22760-4 0 8195 2 20580 028.4665 165.3470 0003647 048.0918 311.9986 15.00198612723938 ISS (ZARYA) 1 25544U 98067A 07062.19859031 .00021857 00000-0 12287-3 0 7467 2 25544 051.6352 291.6918 0020480 271.9030 186.2937 15.78891813474031 CXO 1 25867U 99040B 07061.87500000 .00000216 00000-0 00000+0 0 410 2 25867 061.2592 091.5642 6085644 285.9476 356.6138 00.37804513 1853 ____________________________________________________________________ These 2-Line ...Continue Reading
  • This mailing list is a public mailing list - anyone may join or leave, at any time.
  • This mailing list is announce-only.

International Space Station (ISS) / Hubble Space Telescope (HST) / Chandra X-Ray Observatory Orbital Data via EMAIL

Privacy Policy:

Private list